Location: Kellogg
(38.0159°N, 90.0546°W)
Time: 23:23:03
(UTC+00:00)

Tiros 1 - Visible Passes

Search period start: 11 September 2024 00:00
Search period end: 21 September 2024 00:00
Orbit: 623 x 655 km, 48.4° (Epoch: 11 September)

Date Brightness Start Highest point End Pass type
(mag) Time Alt. Az. Time Alt. Az. Time Alt. Az.
11 Sep 9.0 02:11:17 10° NW 02:14:56 22° N 02:16:40 18° NNE visible
11 Sep 10.1 03:53:33 10° NW 03:54:09 13° NW 03:54:09 13° NW visible
12 Sep 9.0 00:52:03 10° WNW 00:55:50 24° N 00:59:39 10° NE visible
12 Sep 8.8 02:35:05 10° NW 02:38:57 25° NNE 02:38:57 25° NNE visible
13 Sep 9.0 01:16:13 10° NW 01:19:51 22° N 01:23:30 10° NE visible
13 Sep 9.0 02:58:36 10° NW 03:01:13 26° NNW 03:01:13 26° NNW visible
14 Sep 8.8 01:40:05 10° NW 01:43:52 24° N 01:46:01 18° NE visible
14 Sep 9.6 03:22:00 10° NW 03:23:30 20° NW 03:23:30 20° NW visible
15 Sep 8.3 02:03:37 10° NW 02:07:47 31° NNE 02:08:18 31° NNE visible
15 Sep 10.2 03:45:29 10° WNW 03:45:47 12° WNW 03:45:47 12° WNW visible
16 Sep 8.8 00:45:02 10° NW 00:48:45 23° N 00:52:29 10° ENE visible
16 Sep 8.0 02:27:01 10° NW 02:30:36 43° N 02:30:36 43° N visible
17 Sep 8.4 01:08:36 10° NW 01:12:39 29° NNE 01:15:27 17° ENE visible
17 Sep 8.8 02:50:26 10° WNW 02:52:56 32° WNW 02:52:56 32° WNW visible
18 Sep 7.7 01:32:00 10° NW 01:36:26 44° NNE 01:37:49 34° ENE visible
18 Sep 9.7 03:14:05 10° WNW 03:15:19 17° WNW 03:15:19 17° WNW visible
19 Sep 6.9 01:55:23 10° NW 02:00:01 81° NNE 02:00:15 77° ENE visible
20 Sep 7.9 00:36:57 10° NW 00:41:17 40° NNE 00:45:14 12° E visible
20 Sep 7.9 02:18:56 10° WNW 02:22:44 45° WSW 02:22:44 45° WSW visible
